STARLINK-4316, 53471

Orbit data source: Space-Track

STARLINK-4316, 53471 is a payload satellite owned by SpaceX/Seattle (US) in SSO that was launched on Fri, 12 Aug 2022 UTC via an FALCON 9 launch vehicle from the Air Force Western Test Range (AFWTR). Payload-class satellites include a variety of spacecraft equipped with specific instruments for various scientific and technological missions. These include communications satellites like Starlink; space stations such as the ISS; scientific satellites like the Hubble; Earth observation satellites from companies like Planet Labs, Umbra, and HawkEye 360; GPS; miniature CubeSats for education and research; and military/defense satellites.

Loading next visibility...
Identifier
53471, 2022-099G
Orbit
SSO
Country
Flag of USUS
Related business
Manufacturer
SpaceX/Seattle
Mission
Operational Commercial Communications
Bus & Motor
STARLINK, Unknown motor
Mass
300 kg wet, ~275 kg dry
Launch date (UTC)
2022-08-12 (4 years ago)
Launch vehicle
FALCON 9
Launch site
Air Force Western Test Range (AFWTR)
Object type
Payload
Rocket body
Debris
Shape & HBR
Box + 1 Pan, 10.1 m
Radar Cross Section
13.562 m², Large (>1 m²)

Expand to show TLE details & history
Last TLE update: 8 hours ago

TLE from 8 hours ago
0 STARLINK-4316
1 53471U 22099G   26145.58391247 -.00001643  00000-0 -10978-3 0  9993
2 53471  97.4445 266.5936 0001871 103.6544 256.4892 15.05659603207614
Epoch: 2026-05-25T14:00Z
TLE epoch observation values (Epoch: 2026-05-25T14:00:50.037Z)
Latitude
0.00002°
Longitude
173.2155°
Altitude
552.855 km
Speed
7.585 km/s
True Right ascension
17h 46m 22s
True Declination
0° 00' 00"
Sunlit
Object was in full shadow at epoch
Visualization orbit readout
Latitude
Unknown
Longitude
Unknown
Altitude
Unknown
Speed
Unknown
Apparent Right ascension
Unknown
Apparent Declination
Unknown
Sunlit
N/A
Visualization observer readout
Local Sidereal Time
07:04:58
Azimuth
Unknown
Elevation
Unknown
Doppler factor
Unknown
Orbital elements
Apogee altitude
547.764 km
Perigee altitude
545.173 km
Semi-major axis
6,924.605 km
Eccentricity
0.00019
Inclination
97.4445°
RAAN
266.5936°
Arg. of periapsis
103.6544°
True anomaly
256.46835°
Mean anomaly
256.4892°
Eccentric anomaly
256.47878°
Mean motion
3.76661 °/min
Orbital period
95.58 mins
BSTAR
-0.00010978
Loading maneuver chart data...
Computing Atmospheric mass density...
Loading historical data...
Loading historical data...
Loading historical data...
Loading historical data...
Loading historical data...
Loading historical data...
Loading historical data...

Documentation

Showing up to 5 results
|